User: anonymous   Login
Location: Clinton NY
(43.0598°N, 75.3602°W)
Time: 11:32:31
(UTC-05:00)
Language:

Iridium 42 - Orbit

View from above orbital plane
View from above orbital plane
View from above satellite
View from above satellite

Ground track
Ground track

The orbit data is extracted from the following two-line orbital elements,

1 25077U 97077A   14353.57742327  .00000356  00000-0  12004-3 0   810
2 25077 086.3958 042.6206 0002196 104.5792 255.5648 14.34296836891658
Epoch (UTC): 19 December 2014 13:51:29
Eccentricity: 0.0002196
inclination: 86.3958°
perigee height: 776 km
apogee height: 779 km
right ascension of ascending node: 42.6206°
argument of perigee: 104.5792°
revolutions per day: 14.34296836
mean anomaly at epoch: 255.5648°
orbit number at epoch: 89165

The dashed part of the orbit path shows where the satellite is in the earth's shadow,  

DLR